Вернуться в каталог

NOAA 16 DEB

АктивенSSO
NORAD 41374·DEBRIS·🇺🇸 United States

Запущен Sep 21, 2000 с Vandenberg Space Force Base

Loading…

Ближайшие Пролёты (ближайшие 24 часа)

TLE

СвежийSource: Space-Track

Эпоха: Sep 14, 2026, 08:57 UTC

1 41374U 00055JT  26257.37354406  .00001698  00000-0  81038-3 0  9990
2 41374  98.7109 305.3177 0030762 267.1199  92.6456 14.20297750548123

Отслеживайте NOAA 16 DEB в реальном времени с AllMySat

Download on the App Store